SCP
0 0 0 0 0 0 0 0 0 0 0 0 0 0 0 0 0 0 0 0 0 0 0 0 0 0 0 0 0 0 1 1 1 1 1 1 1 1 1 1 1 1 0 0
0 0 0 0 0 0 0 0 0 0 0 0 0 0 0 0 0 0 0 0 0 0 0 0 0 0 0 0 0 0 1 1 1 1 1 1 1 1 1 1 1 1 0 0
0 0 0 0 0 0 0 0 0 0 0 0 0 0 0 0 0 0 0 0 0 0 0 0 0 0 0 0 0 0 0 0 1 1 1 1 1 1 1 1 1 1 1 0
0 0 0 0 0 0 0 0 0 0 0 0 0 0 0 0 0 0 0 0 0 0 0 0 0 0 0 0 0 0 0 0 1 1 1 1 1 1 1 1 1 1 1 0
0 0 0 0 0 0 0 0 0 0 0 0 0 0 0 0 0 0 0 0 0 0 0 0 0 0 0 0 0 0 0 0 1 1 1 1 1 1 1 1 1 1 1 0
0 0 0 0 0 0 0 0 0 0 0 0 0 0 0 0 0 0 0 0 0 0 0 0 0 0 0 0 0 0 0 0 1 1 1 1 1 1 1 1 1 1 0 0
0 0 0 0 0 0 0 0 0 0 0 0 0 0 0 0 0 0 0 0 0 0 0 0 0 0 0 0 0 0 0 0 0 1 1 1 1 1 1 1 1 0 0 0
0 0 0 0 0 0 0 0 0 0 0 0 0 0 0 0 0 0 0 0 0 0 0 0 0 0 0 0 0 0 0 0 0 1 1 1 1 1 1 1 1 0 0 0
0 0 0 0 0 0 0 0 0 0 0 0 0 0 0 0 0 0 0 0 0 0 0 0 0 0 0 0 0 0 0 0 1 1 1 1 1 1 1 1 1 0 0 0
0 0 0 0 0 0 0 0 0 0 0 0 0 0 0 0 0 0 0 0 0 0 0 0 0 0 0 0 0 0 0 0 1 1 1 0 0 0 0 0 0 0 0 0
0 0 0 0 0 0 0 0 0 0 0 0 0 0 0 0 0 0 0 0 0 0 0 0 0 0 0 0 0 0 0 0 1 1 0 0 0 0 0 0 0 0 0 0
0 0 0 0 0 0 0 0 0 0 0 0 0 0 0 0 0 0 0 0 0 0 0 0 0 0 0 0 0 0 0 0 0 0 0 0 0 0 0 0 0 0 0 0
0 0 0 0 0 0 0 0 0 0 0 0 0 0 0 0 0 0 0 0 0 0 0 0 0 0 0 0 0 0 0 0 0 0 0 0 0 0 0 0 0 0 0 0
0 0 0 0 0 0 0 0 0 0 0 0 0 0 0 0 0 0 0 0 0 0 0 0 0 0 0 0 0 0 0 0 0 0 0 0 0 0 0 0 0 0 0 0
0 0 0 0 0 0 0 0 0 0 0 0 0 0 0 0 0 0 0 0 0 0 0 0 0 0 0 0 0 0 0 0 0 0 0 0 0 0 0 0 0 0 0 0
0 0 0 0 0 0 0 0 0 0 0 0 0 0 0 0 0 0 0 0 0 0 0 0 0 0 0 0 0 0 0 0 0 0 0 0 0 0 0 0 0 0 0 0
0 0 0 0 0 0 0 0 0 0 0 0 0 0 0 0 0 0 0 0 0 0 0 0 0 0 0 0 0 0 0 0 0 0 0 0 0 0 0 0 0 0 0 0
0 0 0 0 0 0 0 0 0 0 0 0 0 0 0 0 0 0 0 0 0 0 0 0 0 0 0 0 0 0 0 0 0 0 0 0 0 0 0 0 0 0 0 0
0 0 0 0 0 0 0 0 0 0 0 0 0 0 0 0 0 0 0 0 0 0 0 0 0 0 0 0 0 0 0 0 0 0 0 0 0 0 0 0 0 0 0 0
0 0 0 0 0 0 0 0 0 0 0 0 0 0 0 0 0 0 0 0 0 0 0 0 0 0 0 0 0 0 0 0 0 0 0 0 0 0 0 0 0 0 0 0
0 0 0 0 0 0 0 0 0 0 0 0 0 0 0 0 0 0 0 0 0 0 0 0 0 0 0 0 0 0 0 0 0 0 0 0 0 0 0 0 0 0 0 0
0 0 0 0 0 0 0 0 0 0 0 0 0 0 0 0 0 0 0 0 0 0 0 0 0 0 0 0 0 0 0 0 0 0 0 0 0 0 0 0 0 0 0 0
0 0 0 0 0 0 0 0 0 0 0 0 0 0 0 0 0 0 0 0 0 0 0 0 0 0 0 0 0 0 0 0 0 0 0 0 0 0 0 0 0 0 0 0
0 0 0 0 0 0 0 0 0 0 0 0 0 0 0 0 0 0 0 0 0 0 0 0 0 0 0 0 0 0 0 0 0 0 0 0 0 0 0 0 0 0 0 0
0 0 0 0 0 0 0 0 0 0 0 0 0 0 0 0 0 0 0 0 0 0 0 0 0 0 0 0 0 0 0 0 0 0 0 0 0 0 0 0 0 0 0 0
0 0 0 0 0 0 0 0 0 0 0 0 0 0 0 0 0 0 0 0 0 0 0 0 0 0 0 0 0 0 0 0 0 0 0 0 0 0 0 0 0 0 0 0
0 0 0 0 0 0 0 0 0 0 0 0 0 0 0 0 0 0 0 0 0 0 0 0 0 0 0 0 0 0 0 0 0 0 0 0 0 0 0 0 0 0 0 0
Wind_Speed
8 6 7 8 8 9 11 11 11 9 6 2 1 1 2 2 2 1 1 1 2 2 3 2 2 2 2 1 1 2 3 3 3 3 4 5 5 5 5 5 5 5 5 5
9 7 6 7 8 9 9 9 10 8 5 2 0 1 1 1 2 1 0 1 2 2 3 2 2 2 2 2 2 3 4 4 3 3 4 4 5 5 5 5 5 5 5 5
9 7 8 9 7 8 8 7 8 7 4 1 1 1 1 1 1 1 1 1 2 3 3 3 3 3 3 3 3 3 4 3 3 4 4 4 5 5 5 5 6 5 5 6
6 7 11 2 1 3 4 2 3 4 3 2 2 1 0 1 1 2 2 2 3 3 3 3 3 3 3 3 3 3 4 4 4 4 4 4 5 5 5 5 5 5 6 6
6 8 6 3 2 3 4 3 3 3 3 2 1 2 3 0 2 2 3 3 3 3 4 3 3 3 4 3 3 3 4 4 4 4 5 5 5 5 5 5 5 6 6 6
7 8 6 1 1 2 6 5 1 2 2 2 3 4 1 2 3 3 3 3 3 3 3 3 3 3 4 4 3 3 3 3 4 4 5 5 5 5 4 5 5 5 5 5
8 7 2 2 1 3 6 1 2 2 2 2 3 4 3 3 3 3 3 3 4 4 4 3 3 4 4 4 4 3 3 3 3 4 5 5 5 4 4 5 5 5 5 5
6 7 2 3 0 2 3 4 3 3 3 3 3 3 3 3 3 4 4 4 4 4 4 3 4 4 5 4 3 3 3 3 3 3 4 3 4 4 4 4 5 5 5 5
3 2 3 3 2 2 3 4 4 4 4 4 4 4 4 4 4 4 4 4 4 5 4 4 4 4 5 4 3 3 3 3 3 3 3 3 4 5 5 5 5 4 4 4
3 2 3 3 3 3 4 5 5 5 5 5 5 5 5 5 4 5 5 5 5 5 4 4 4 5 5 4 4 4 3 3 3 3 3 2 3 3 4 4 4 4 4 4
4 4 5 4 5 5 5 6 6 6 6 6 6 6 6 5 5 5 5 5 5 5 5 5 5 5 4 4 4 4 3 3 3 3 3 3 3 2 3 2 2 4 4 4
5 5 6 6 7 7 7 7 7 7 7 6 6 6 6 5 5 5 6 5 5 6 6 5 5 5 4 3 4 4 4 4 3 3 2 3 2 1 1 1 1 1 3 3
5 6 7 8 8 9 9 9 9 8 8 7 7 6 6 6 5 6 6 6 6 6 5 5 5 5 4 4 4 5 4 3 3 3 3 3 3 2 1 1 2 2 3 2
5 6 7 7 9 10 10 9 8 8 7 6 6 6 6 6 6 6 6 6 6 5 5 5 5 4 4 4 4 4 4 3 3 3 3 3 3 3 3 2 2 1 2 4
6 7 7 8 9 10 9 8 7 6 6 6 5 5 5 5 5 5 5 5 4 4 4 4 4 3 3 4 4 4 4 3 3 3 3 3 3 3 3 3 2 1 1 3
8 8 7 8 8 9 8 8 7 6 6 5 4 4 4 4 4 4 3 3 3 4 3 3 3 3 2 3 3 3 3 2 3 3 3 3 3 2 2 2 2 2 2 1
8 7 7 8 8 9 8 7 7 6 6 6 5 4 4 4 3 2 2 2 2 2 2 2 2 2 2 2 2 2 2 2 4 4 3 2 1 2 2 2 2 2 1 1
7 8 8 9 9 9 8 7 6 6 6 6 5 4 4 3 3 2 1 1 1 1 1 1 1 2 2 2 2 2 2 1 2 2 1 1 1 2 2 2 2 2 2 2
7 7 8 8 9 8 8 7 6 6 5 5 4 4 3 2 2 1 1 0 1 1 1 1 1 3 3 2 1 2 1 1 1 1 1 1 2 2 2 2 2 2 2 1
7 7 7 7 7 7 7 6 5 5 4 3 3 2 1 1 1 1 1 1 1 1 1 1 1 2 1 1 1 2 1 1 1 1 1 2 2 2 2 2 2 2 2 2
7 6 6 6 7 7 7 6 5 4 3 2 2 1 1 1 1 0 1 0 1 1 0 1 1 1 0 0 2 2 1 1 1 1 1 2 2 2 2 2 2 2 2 2
6 6 6 6 6 6 6 5 4 3 2 2 1 1 0 0 0 1 0 1 1 1 0 0 0 2 2 1 1 0 0 1 1 1 1 1 1 2 2 2 2 2 2 2
6 5 5 6 6 6 5 5 4 3 2 2 2 1 1 1 1 1 1 1 1 1 1 1 3 3 1 1 0 0 1 1 0 0 1 1 1 1 2 2 2 2 2 2
5 5 5 5 5 5 5 5 5 4 3 2 2 2 2 1 1 1 2 2 2 1 1 4 4 1 2 1 1 1 1 1 1 1 1 1 1 1 2 2 2 2 2 2
5 5 5 4 4 4 4 4 4 3 2 2 3 3 2 2 2 2 2 3 3 1 2 3 3 1 1 1 2 2 2 2 2 2 2 2 2 2 2 2 3 2 2 2
4 4 4 4 3 3 3 3 3 2 2 2 2 2 2 2 2 2 2 3 3 3 2 2 2 1 1 2 2 2 2 2 1 1 1 1 2 2 2 2 3 3 2 2
3 3 3 3 3 3 3 3 3 3 3 2 3 3 3 3 3 3 3 3 3 3 3 3 3 3 3 3 3 3 3 2 2 2 2 2 2 2 2 3 2 3 3 2
Wind_Direction
259 263 251 245 237 234 239 254 262 266 267 272 268 220 170 148 133 110 74 45 34 16 17 9 1 345 338 310 248 231 223 212 210 205 203 203 203 204 204 202 204 206 210 213
249 238 238 246 244 239 243 255 262 264 268 338 37 163 173 161 155 151 57 354 358 350 350 348 341 327 318 297 268 237 230 225 212 210 210 208 204 201 201 204 207 207 212 213
249 235 240 238 245 247 242 252 265 268 286 292 243 258 261 198 184 299 316 335 339 329 326 325 318 314 300 291 270 244 234 229 221 218 217 216 211 204 203 204 206 210 213 215
248 230 236 217 300 263 243 256 283 287 295 285 284 280 313 347 303 311 314 318 325 318 314 310 302 296 291 284 265 241 233 230 226 223 222 220 217 214 211 208 209 211 214 214
248 237 229 200 230 247 242 246 305 293 291 293 318 246 194 174 325 312 301 309 308 303 303 296 290 288 281 272 266 248 234 235 235 231 225 221 219 218 217 216 216 216 213 214
245 249 240 140 88 272 247 227 356 311 306 315 283 256 189 25 330 322 314 306 303 298 295 287 282 273 268 267 267 270 260 252 243 238 236 230 225 224 221 219 219 219 215 215
245 249 227 33 9 230 236 336 31 338 323 298 289 318 341 312 296 295 293 290 293 286 283 279 268 264 264 269 275 281 271 256 252 246 242 232 225 223 220 219 217 215 215 214
243 243 221 45 358 264 348 359 337 318 308 292 296 309 301 284 273 269 274 281 286 283 284 279 263 259 260 265 276 274 262 247 245 247 249 233 222 221 220 219 215 210 209 216
285 300 10 350 337 336 330 321 318 309 305 291 285 287 287 282 274 270 275 278 276 276 278 273 265 260 262 261 260 257 254 243 237 237 240 239 231 220 215 214 222 218 213 217
264 276 306 321 327 324 314 307 304 297 287 281 280 282 283 281 278 276 274 271 273 273 271 269 266 264 262 251 239 240 241 234 229 227 225 223 239 231 228 226 226 225 226 227
266 288 302 307 320 320 320 312 304 293 282 276 274 275 275 276 275 273 271 269 267 268 265 262 258 260 259 249 239 234 231 226 226 219 211 222 231 257 249 248 276 260 248 239
279 299 296 298 307 310 309 306 301 296 290 282 276 274 272 271 269 269 269 266 262 264 264 260 257 255 253 240 230 229 227 222 224 220 212 226 222 217 23 281 83 254 271 276
296 298 298 300 308 312 307 299 294 289 287 286 283 278 270 270 268 266 265 264 261 260 258 254 253 252 248 231 225 229 235 229 232 221 216 230 231 227 215 200 191 210 218 207
311 306 298 307 310 310 307 301 292 286 284 284 281 277 275 273 270 265 264 264 258 256 251 249 253 255 246 230 226 232 233 216 233 234 230 234 236 232 227 224 206 208 187 178
308 305 301 304 305 309 311 304 289 284 289 290 285 276 272 269 268 268 268 262 251 249 249 251 255 253 245 238 230 230 231 223 232 244 243 238 237 238 231 230 221 215 189 156
306 305 306 305 309 313 315 314 306 300 299 297 293 287 282 273 269 268 264 254 239 238 249 259 256 241 226 228 231 226 219 202 234 244 238 232 229 234 240 237 237 232 231 205
309 312 312 313 316 318 318 315 312 313 311 307 299 289 282 277 271 267 267 265 251 246 252 256 251 232 210 207 226 230 213 190 211 240 251 253 247 253 257 251 252 261 272 79
313 309 309 310 313 314 313 309 306 310 310 303 296 287 282 278 272 271 265 230 224 238 250 250 257 240 213 205 233 253 231 224 225 238 253 267 278 268 265 263 257 256 253 167
313 313 313 311 309 309 308 308 312 314 309 301 294 281 274 267 269 282 281 215 218 242 279 286 253 235 221 194 228 242 240 244 234 231 235 226 247 260 272 269 268 277 291 277
321 319 320 319 320 321 318 314 309 306 306 306 304 301 297 286 282 320 315 269 274 311 278 276 256 249 233 161 207 232 230 233 234 239 235 235 248 254 262 272 281 279 278 275
333 331 331 331 331 331 332 328 319 312 309 311 318 320 313 301 294 314 302 301 350 358 292 174 236 272 137 105 228 240 228 234 243 252 260 260 260 267 273 280 287 286 281 280
339 340 338 337 340 342 343 337 332 328 324 316 312 306 309 86 61 47 14 333 15 42 289 214 19 46 33 287 227 229 299 287 265 265 269 272 282 291 293 290 280 283 288 295
339 338 339 341 345 347 347 346 345 337 335 333 334 338 344 356 355 352 12 23 39 48 328 32 50 63 4 256 307 13 28 7 24 26 336 316 343 338 319 306 309 317 321 320
335 337 338 337 340 348 355 355 354 355 357 359 17 26 24 27 40 45 43 65 51 41 38 73 79 70 257 271 356 21 36 41 41 37 14 5 4 344 327 322 318 317 317 318
338 335 336 339 338 343 349 345 345 359 20 38 41 44 36 33 38 46 61 64 59 36 57 93 115 147 264 356 11 9 12 25 26 17 17 15 9 348 340 337 331 324 323 328
336 334 339 337 335 333 337 339 349 9 23 37 41 45 48 49 50 50 60 66 56 31 12 33 57 76 14 20 24 22 18 41 49 18 23 17 15 11 356 344 336 333 336 349
339 342 341 350 356 351 349 356 1 6 16 32 44 41 41 44 42 42 45 47 48 34 19 14 15 18 22 21 20 20 19 20 23 21 24 25 21 21 15 358 353 353 346 356